FW5428 Weather Reports


Display with metric or nautical units.
time (UTC)temp
F
wind
direction
speed
MPH
gust
MPH
rain 1hr
in
rain 24hr
in
rain mn
in
humidity
%
barometer
mb
20260831171056 63 90 12.0 22.0 0.00 0.00 0.28 81 1012.4
20260831170035 63 90 8.0 23.0 0.00 0.00 0.28 80 1012.5
20260831165526 63 90 17.0 23.0 0.00 0.00 0.28 81 1012.4
20260831163955 62 90 8.0 17.0 0.00 0.00 0.28 81 1012.7
20260831163445 61 135 4.0 18.0 0.00 0.00 0.28 82 1012.7
20260831162425 60 135 12.0 16.0 0.00 0.00 0.28 85 1013.0
20260831161914 61 135 11.0 16.0 0.00 0.00 0.28 86 1013.2
20260831161405 61 135 11.0 17.0 0.00 0.00 0.28 85 1013.1
20260831160855 60 135 6.0 17.0 0.00 0.00 0.28 84 1013.0
20260831160344 60 90 12.0 17.0 0.00 0.00 0.28 85 1013.2
20260831155834 60 90 15.0 18.0 0.00 0.00 0.28 85 1013.3
20260831155324 60 135 5.0 19.0 0.00 0.00 0.28 86 1017.6
20260831154304 60 90 15.0 18.0 0.00 0.00 0.00 86 1013.0
20260831153754 60 135 11.0 18.0 0.00 0.00 0.00 85 1013.1
20260831152734 60 180 10.0 21.0 0.00 0.00 0.00 86 1012.9
20260831152224 60 135 16.0 21.0 0.00 0.00 0.00 87 1012.8
20260831151713 59 135 13.0 21.0 0.00 0.00 0.00 87 1012.6
20260831151204 59 135 16.0 21.0 0.00 0.00 0.00 88 1012.6
20260831150653 59 135 15.0 20.0 0.00 0.00 0.00 87 1012.7
20260831145633 59 135 12.0 17.0 0.00 0.00 0.00 88 1012.6
20260831145123 59 135 14.0 21.0 0.00 0.00 0.00 88 1012.7
20260831144622 59 135 7.0 21.0 0.00 0.00 0.00 88 1012.7
20260831144102 59 135 16.0 20.0 0.00 0.00 0.00 87 1012.4
20260831143552 59 90 11.0 20.0 0.00 0.00 0.00 88 1012.4
20260831143042 59 135 10.0 24.0 0.00 0.00 0.00 88 1012.2
20260831142532 59 135 16.0 24.0 0.00 0.00 0.00 88 1011.9
20260831142021 59 135 16.0 21.0 0.00 0.00 0.00 88 1012.2
20260831141512 59 180 10.0 18.0 0.00 0.00 0.00 88 1012.7
20260831141002 58 135 10.0 18.0 0.00 0.00 0.00 88 1012.3
20260831140451 58 135 12.0 18.0 0.00 0.00 0.00 88 1012.3
20260831135941 58 135 12.0 22.0 0.00 0.00 0.00 88 1012.5
20260831135432 58 135 13.0 22.0 0.00 0.00 0.00 88 1012.3
20260831134411 59 135 6.0 15.0 0.00 0.00 0.00 87 1012.5
20260831133901 58 135 11.0 17.0 0.00 0.00 0.00 87 1012.6
20260831133351 58 90 10.0 18.0 0.00 0.00 0.00 87 1013.0
20260831132331 58 90 6.0 21.0 0.00 0.00 0.00 87 1012.4
20260831131821 58 135 14.0 21.0 0.00 0.00 0.00 87 1012.4
20260831130800 58 90 6.0 21.0 0.00 0.00 0.00 88 1012.1
20260831125230 58 135 12.0 19.0 0.00 0.00 0.00 88 1012.3
20260831124720 58 90 9.0 19.0 0.00 0.00 0.00 88 1012.5
20260831123659 58 90 10.0 16.0 0.00 0.00 0.00 89 1012.6
20260831123150 58 90 8.0 16.0 0.00 0.00 0.00 89 1012.5
20260831122639 58 135 10.0 14.0 0.00 0.00 0.00 89 1012.8
20260831122129 58 90 2.0 14.0 0.00 0.00 0.00 89 1012.7
20260831121619 57 180 7.0 13.0 0.00 0.00 0.00 89 1012.6
20260831120049 58 90 6.0 14.0 0.00 0.00 0.00 89 1012.3
20260831115545 57 90 4.0 12.0 0.00 0.00 0.00 89 1012.2
20260831115028 57 90 2.0 15.0 0.00 0.00 0.00 90 1011.9
20260831114518 57 270 6.0 17.0 0.00 0.00 0.00 90 1012.2
20260831113459 57 45 4.0 12.0 0.00 0.00 0.00 90 1012.4
20260831112948 57 90 5.0 12.0 0.00 0.00 0.00 90 1012.2
20260831112438 57 90 3.0 17.0 0.00 0.00 0.00 90 1012.3
20260831111928 57 90 4.0 17.0 0.00 0.00 0.00 90 1012.0
20260831111418 57 45 6.0 11.0 0.00 0.00 0.00 90 1011.9
20260831110907 57 90 4.0 12.0 0.00 0.00 0.00 91 1012.1
20260831110358 57 135 4.0 12.0 0.00 0.00 0.00 91 1012.0
20260831105848 57 90 6.0 11.0 0.00 0.00 0.00 91 1011.9
20260831105337 57 90 3.0 11.0 0.00 0.00 0.00 91 1012.1
20260831104827 56 90 4.0 9.0 0.00 0.00 0.00 91 1012.1
20260831104317 56 90 1.0 10.0 0.00 0.00 0.00 91 1011.9
20260831103807 56 90 4.0 12.0 0.00 0.00 0.00 91 1011.6
20260831103257 56 90 4.0 12.0 0.00 0.00 0.00 91 1011.8
20260831102747 56 90 8.0 12.0 0.00 0.00 0.00 91 1011.5
20260831102237 56 135 5.0 17.0 0.00 0.00 0.00 91 1011.5
20260831101727 56 45 8.0 17.0 0.00 0.00 0.00 91 1011.7
20260831101217 56 90 4.0 10.0 0.00 0.00 0.00 91 1011.5
20260831100706 56 45 3.0 11.0 0.00 0.00 0.00 91 1011.6
20260831100156 56 90 7.0 15.0 0.00 0.00 0.00 91 1011.6
20260831095135 56 45 4.0 11.0 0.00 0.00 0.00 92 1011.4
20260831094629 57 180 3.0 11.0 0.00 0.00 0.00 92 1011.6
20260831094115 57 90 2.0 8.0 0.00 0.00 0.00 92 1011.6
20260831093606 56 135 3.0 13.0 0.00 0.00 0.00 91 1011.9
20260831093056 56 90 2.0 13.0 0.00 0.00 0.00 92 1011.7
20260831092546 56 90 2.0 11.0 0.00 0.00 0.00 92 1011.8
20260831092035 56 90 2.0 11.0 0.00 0.00 0.00 92 1011.7
20260831091015 56 135 2.0 6.0 0.00 0.00 0.00 92 1011.7
20260831090508 56 90 3.0 6.0 0.00 0.00 0.00 92 1011.8
20260831085955 56 90 2.0 6.0 0.00 0.00 0.00 92 1011.8
20260831085445 56 180 0.0 4.0 0.00 0.00 0.00 92 1012.0
20260831084935 56 90 2.0 4.0 0.00 0.00 0.00 92 1012.1
20260831083915 56 90 2.0 4.0 0.00 0.00 0.00 92 1011.9
20260831082854 56 90 2.0 8.0 0.00 0.00 0.00 92 1012.1
20260831082344 56 90 4.0 7.0 0.00 0.00 0.00 92 1012.1
20260831081833 56 90 2.0 6.0 0.00 0.00 0.00 92 1011.8
20260831081324 55 90 3.0 8.0 0.00 0.00 0.00 92 1012.0
20260831080814 55 90 3.0 8.0 0.00 0.00 0.00 92 1011.9
20260831080303 55 90 2.0 8.0 0.00 0.00 0.00 92 1012.3
20260831075753 55 90 3.0 12.0 0.00 0.00 0.00 92 1012.2
20260831075243 55 45 4.0 12.0 0.00 0.00 0.00 92 1012.1
20260831074734 55 90 2.0 9.0 0.00 0.00 0.00 92 1012.4
20260831074223 55 90 4.0 9.0 0.00 0.00 0.00 92 1012.2
20260831073713 56 90 2.0 10.0 0.00 0.00 0.00 92 1012.4
20260831072654 56 90 3.0 8.0 0.00 0.00 0.00 92 1012.5
20260831072142 56 45 3.0 8.0 0.00 0.00 0.00 92 1012.8
20260831071633 56 90 2.0 9.0 0.00 0.00 0.00 92 1012.7
20260831070613 55 90 4.0 13.0 0.00 0.00 0.00 92 1012.8
20260831065552 56 180 3.0 13.0 0.00 0.00 0.00 92 1012.8
20260831065042 56 135 4.0 13.0 0.00 0.00 0.00 92 1012.8
20260831064532 56 135 2.0 14.0 0.00 0.00 0.00 92 1012.9
20260831064022 55 90 3.0 15.0 0.00 0.00 0.00 92 1013.2
20260831063512 55 135 8.0 15.0 0.00 0.00 0.00 92 1013.3
20260831063001 55 90 8.0 14.0 0.00 0.00 0.00 92 1013.3
20260831062451 55 135 5.0 13.0 0.00 0.00 0.00 92 1013.2
20260831061942 55 90 8.0 13.0 0.00 0.00 0.00 92 1013.5
20260831061431 55 90 2.0 16.0 0.00 0.00 0.00 92 1013.3
20260831060921 55 90 7.0 16.0 0.00 0.00 0.00 92 1013.4
20260831060411 55 135 6.0 0.0 0.00 0.00 0.00 92 1013.6
20260831055449 55 180 2.0 13.0 0.00 0.28 0.00 92 1013.5
20260831054939 55 135 8.0 13.0 0.00 0.28 0.00 92 1013.6
20260831054429 55 90 7.0 10.0 0.00 0.28 0.00 92 1013.4
20260831053919 55 135 4.0 10.0 0.00 0.28 0.00 92 1013.3
20260831053410 55 135 4.0 10.0 0.00 0.28 0.00 92 1013.5
20260831052900 55 135 7.0 9.0 0.00 0.28 0.00 92 1013.5
20260831052349 55 135 4.0 8.0 0.00 0.28 0.00 92 1013.3
20260831051839 55 90 3.0 6.0 0.00 0.28 0.00 92 1013.5
20260831051328 55 90 2.0 6.0 0.00 0.28 0.00 92 1013.4
20260831050308 56 180 1.0 8.0 0.00 0.28 0.00 91 1013.7
20260831045758 56 135 5.0 8.0 0.00 0.28 0.00 91 1013.5
20260831045248 56 135 5.0 9.0 0.00 0.28 0.00 91 1013.4
20260831044228 56 90 5.0 12.0 0.00 0.28 0.00 91 1013.3
20260831043208 56 90 8.0 13.0 0.00 0.28 0.00 91 1013.6
20260831042658 56 90 11.0 13.0 0.00 0.28 0.00 91 1013.6
20260831042148 56 135 8.0 13.0 0.00 0.28 0.00 91 1013.6
20260831041638 56 135 8.0 12.0 0.00 0.28 0.00 91 1013.6
20260831040618 57 135 4.0 11.0 0.00 0.28 0.00 91 1013.8
20260831040118 57 135 6.0 13.0 0.00 0.28 0.00 91 1013.8
20260831035557 57 135 7.0 15.0 0.00 0.28 0.00 90 1013.8
20260831034536 58 180 12.0 15.0 0.00 0.28 0.00 90 1013.8
20260831034027 58 180 6.0 11.0 0.00 0.28 0.00 90 1013.9
20260831033526 58 90 5.0 11.0 0.00 0.28 0.00 90 1013.9
20260831033006 58 90 6.0 11.0 0.00 0.28 0.00 90 1013.9
20260831032457 58 135 4.0 10.0 0.00 0.28 0.00 89 1013.6
20260831031946 58 90 6.0 10.0 0.00 0.28 0.00 88 1013.8
20260831031436 58 90 5.0 11.0 0.00 0.28 0.00 88 1013.7
20260831030927 58 90 3.0 11.0 0.00 0.28 0.00 88 1013.5
20260831025906 58 135 8.0 17.0 0.00 0.28 0.28 87 1013.2
20260831025356 58 135 5.0 12.0 0.00 0.28 0.28 87 1013.1
20260831024846 58 90 3.0 15.0 0.00 0.28 0.28 87 1012.8
20260831024335 58 90 6.0 15.0 0.00 0.28 0.28 87 1013.0
20260831023825 58 90 4.0 14.0 0.00 0.28 0.28 87 1012.8
20260831022255 59 135 4.0 16.0 0.00 0.28 0.28 87 1012.7
20260831021745 58 90 8.0 16.0 0.00 0.28 0.28 87 1012.8
20260831020725 59 90 6.0 18.0 0.00 0.28 0.28 87 1012.5
20260831020215 59 90 5.0 18.0 0.00 0.28 0.28 87 1012.5
20260831015705 59 90 5.0 13.0 0.00 0.28 0.28 87 1012.5
20260831015154 59 90 5.0 11.0 0.00 0.28 0.28 87 1012.6
20260831014644 59 135 5.0 16.0 0.00 0.28 0.28 87 1012.7
20260831014134 59 45 7.0 16.0 0.00 0.28 0.28 86 1012.8
20260831013625 59 45 3.0 15.0 0.00 0.28 0.28 86 1012.7
20260831013114 59 90 7.0 15.0 0.00 0.28 0.28 87 1012.9
20260831012604 59 90 6.0 15.0 0.00 0.28 0.28 86 1012.6
20260831012054 59 135 4.0 14.0 0.00 0.28 0.28 87 1012.8
20260831011544 59 90 8.0 13.0 0.00 0.28 0.28 87 1012.7
20260831011033 60 90 7.0 15.0 0.00 0.28 0.28 87 1012.7
20260831010523 60 90 6.0 16.0 0.00 0.28 0.28 87 1012.5
20260831010014 60 90 6.0 16.0 0.00 0.28 0.28 86 1012.8
20260831005503 60 135 6.0 17.0 0.00 0.28 0.28 86 1012.6
20260831004954 60 45 8.0 17.0 0.00 0.28 0.28 86 1012.6
20260831003933 60 45 4.0 19.0 0.00 0.28 0.28 86 1012.8
20260831003423 60 90 8.0 19.0 0.00 0.28 0.28 86 1012.7
20260831002913 60 90 6.0 17.0 0.00 0.28 0.28 86 1012.7
20260831002402 60 90 7.0 17.0 0.00 0.28 0.28 86 1012.9
20260831001853 60 90 8.0 16.0 0.00 0.28 0.28 86 1012.7
20260831001342 60 90 6.0 14.0 0.00 0.28 0.28 86 1012.8
20260831000322 61 90 7.0 15.0 0.00 0.28 0.28 85 1012.9
20260830235812 61 90 5.0 15.0 0.00 0.28 0.28 84 1012.9
20260830235305 61 90 6.0 15.0 0.00 0.28 0.28 84 1013.0
20260830234751 61 270 4.0 15.0 0.00 0.28 0.28 83 1013.0
20260830234242 61 45 4.0 15.0 0.00 0.28 0.28 83 1012.8
20260830233732 61 90 4.0 16.0 0.00 0.28 0.28 83 1012.8
20260830233222 61 90 7.0 16.0 0.00 0.28 0.28 82 1012.8
20260830232712 61 90 3.0 15.0 0.00 0.28 0.28 82 1013.1
20260830232201 62 135 6.0 15.0 0.00 0.28 0.28 82 1013.0
20260830231650 62 45 4.0 17.0 0.00 0.28 0.28 81 1012.8
20260830231141 62 135 8.0 17.0 0.00 0.28 0.28 81 1012.8
20260830230632 62 90 7.0 19.0 0.00 0.28 0.28 80 1012.9
20260830230120 62 90 4.0 19.0 0.00 0.28 0.28 79 1012.8
20260830225100 62 45 5.0 17.0 0.00 0.28 0.28 77 1012.6
20260830224550 62 90 9.0 17.0 0.00 0.28 0.28 77 1012.6
20260830224040 63 0 4.0 15.0 0.00 0.28 0.28 76 1012.5
20260830223530 63 90 3.0 15.0 0.00 0.28 0.28 75 1012.7
20260830222510 63 90 7.0 17.0 0.00 0.28 0.28 73 1012.8
20260830222000 63 135 6.0 14.0 0.00 0.28 0.28 72 1012.3
20260830221449 63 90 6.0 14.0 0.00 0.28 0.28 72 1012.6
20260830220939 64 45 4.0 14.0 0.00 0.28 0.28 71 1012.4
20260830215919 64 45 6.0 15.0 0.00 0.28 0.28 69 1012.6
20260830215410 64 90 6.0 12.0 0.00 0.28 0.28 68 1012.6
20260830214900 65 90 3.0 12.0 0.00 0.28 0.28 69 1012.6
20260830214401 65 90 4.0 12.0 0.00 0.28 0.28 68 1012.7
20260830213839 65 45 4.0 13.0 0.00 0.28 0.28 68 1012.5
20260830213328 66 90 3.0 13.0 0.00 0.28 0.28 67 1012.4
20260830212818 66 90 4.0 11.0 0.00 0.28 0.28 66 1012.5
20260830212309 67 90 3.0 12.0 0.00 0.28 0.28 65 1012.4
20260830210228 68 90 8.0 19.0 0.00 0.28 0.28 60 1012.5
20260830204148 69 90 9.0 18.0 0.00 0.28 0.28 55 1012.5
20260830203637 69 90 6.0 23.0 0.00 0.28 0.28 55 1012.5
20260830203127 70 90 9.0 23.0 0.00 0.28 0.28 53 1012.4
20260830202618 70 90 6.0 17.0 0.00 0.28 0.28 53 1012.6
20260830202107 70 90 8.0 20.0 0.28 0.28 0.28 52 1012.5
20260830201557 70 90 9.0 20.0 0.28 0.28 0.28 56 1012.3
20260830201057 70 90 8.0 20.0 0.28 0.28 0.28 55 1012.4
20260830200537 70 135 5.0 20.0 0.28 0.28 0.28 54 1012.5
20260830200027 71 45 5.0 15.0 0.28 0.28 0.28 55 1012.4
20260830195517 71 90 8.0 15.0 0.28 0.28 0.28 53 1012.5
20260830195006 71 90 8.0 17.0 0.28 0.28 0.28 53 1012.6
20260830193946 71 90 7.0 21.0 0.28 0.28 0.28 53 1012.3
20260830193436 71 90 11.0 21.0 0.28 0.28 0.28 51 1012.4
20260830192926 71 135 7.0 21.0 0.28 0.28 0.28 48 1012.6
20260830192416 71 90 8.0 17.0 0.28 0.28 0.28 46 1012.8
20260830191906 71 90 6.0 17.0 0.00 0.00 0.00 50 1012.7
20260830191356 70 90 3.0 21.0 0.00 0.00 0.00 53 1012.5
20260830190846 70 90 7.0 22.0 0.00 0.00 0.00 55 1012.3
20260830190336 70 90 13.0 22.0 0.00 0.00 0.00 63 1012.3
20260830185825 70 90 6.0 18.0 0.00 0.00 0.00 55 1012.4
20260830185322 70 90 6.0 23.0 0.00 0.00 0.00 55 1012.3
20260830184805 70 135 10.0 23.0 0.00 0.00 0.00 59 1012.4
20260830184254 70 90 11.0 26.0 0.00 0.00 0.00 53 1012.4
20260830183745 70 135 16.0 26.0 0.00 0.00 0.00 53 1012.2
20260830183235 69 135 14.0 23.0 0.00 0.00 0.00 53 1012.4
20260830182725 69 90 17.0 23.0 0.00 0.00 0.00 55 1012.4
20260830181154 67 90 14.0 22.0 0.00 0.00 0.00 64 1012.5
20260830180134 67 90 16.0 23.0 0.00 0.00 0.00 62 1012.7
20260830175624 67 135 13.0 21.0 0.00 0.00 0.00 67 1012.7
20260830175113 67 135 16.0 22.0 0.00 0.00 0.00 65 1012.8
20260830174604 67 90 13.0 22.0 0.00 0.00 0.00 68 1012.8
20260830174054 68 135 15.0 25.0 0.00 0.00 0.00 67 1013.0
20260830172524 68 135 13.0 22.0 0.00 0.00 0.00 63 1013.0
20260830172013 68 90 15.0 21.0 0.00 0.00 0.00 67 1013.3
20260830171503 68 90 9.0 21.0 0.00 0.00 0.00 61 1013.2